[[{"header":{"parameterUnit":"m.s-1","parameterCategory":1,"la1":30.2991,"la2":30.254,"lo1":-89.0895,"lo2":-89.0444,"dy":0.0017,"dx":0.0017,"nx":28,"ny":28,"refTime":"2024-06-20T03:00:00:Z","depth":0,"parameterNumber":2,"parameterNumberName":"U-component_of_WINDS"},"data":[0,0,0,0,0,0,0,0,0,0,0,0,0,0,0,0,0,0,0,0,0,0,0,0,0,0,0,0,0,0,0,0,0,0,0,0,0,0,0,0,0,0,0,0,0,0,0,0,0,0,0,0,0,0,0,0,0,0,-2.723,-2.7229,0,-2.7152,-2.7151,-2.715,-2.6988,-2.6984,-2.6981,-2.6978,-2.6903,-2.6904,-2.6905,0,0,0,0,0,0,0,0,0,0,0,0,0,-2.7243,-2.7243,-2.723,-2.7229,-2.7228,-2.7152,-2.7151,-2.715,-2.6988,-2.6984,-2.698,-2.6976,-2.6903,-2.6904,-2.6905,0,0,0,0,0,0,0,0,0,0,0,0,0,-2.7209,-2.7244,-2.723,-2.7138,-2.7129,-2.7152,-2.7151,-2.7149,-2.6989,-2.6984,-2.6979,-2.6975,-2.6902,-2.6904,-2.6905,-2.7013,0,0,-2.691,-2.6911,0,0,0,0,0,0,0,0,-2.7211,-2.7208,-2.7153,-2.7144,-2.7134,-2.7074,-2.7127,-2.7104,-2.699,-2.7042,-2.6978,-2.6972,-2.6964,-2.696,-2.6957,-2.7009,-2.7006,-2.691,-2.6911,-2.6912,-2.6912,0,0,0,0,0,0,0,-2.7213,-2.7211,-2.7199,-2.7152,-2.7141,-2.7102,-2.7091,-2.7122,-2.7032,-2.7037,-2.7025,-2.7018,-2.6958,-2.6956,-2.6954,-2.7005,-2.691,-2.6911,-2.6912,-2.6913,-2.7141,-2.7146,0,0,0,0,0,0,-2.7228,-2.7214,-2.7201,-2.7197,-2.7161,-2.7106,-2.7094,-2.7099,-2.7031,-2.7016,-2.7022,-2.7011,-2.6955,-2.6952,-2.695,-2.7071,-2.6912,-2.6913,-2.6914,-2.7136,-2.7142,-2.7148,0,0,0,0,0,0,-2.7229,-2.7229,-2.7205,-2.7202,-2.7196,-2.711,-2.7117,-2.71,-2.7096,-2.702,-2.7003,-2.7036,-2.6951,-2.6948,-2.6998,-2.7066,-2.6914,-2.6915,-2.713,-2.7138,-2.7145,-2.7314,0,0,0,0,0,0,-2.723,-2.723,-2.7269,-2.7204,-2.7196,-2.7253,-2.7121,-2.7102,-2.7099,-2.7083,-2.7028,-2.7014,-2.6947,-2.6996,-2.6999,-2.7065,-2.6917,-2.7123,-2.7133,-2.7142,-2.7302,-2.7326,-2.7347,0,0,0,0,0,-2.7231,-2.7322,-2.7272,-2.7272,-2.7244,-2.7257,-2.7253,-2.7173,-2.7105,-2.7144,-2.7095,-2.7016,-2.7058,-2.7003,-2.7005,-2.7072,-2.7119,-2.713,-2.7142,-2.7292,-2.7321,-2.7347,0,0,0,0,0,0,-2.7399,-2.7311,-2.7256,-2.7327,-2.7301,-2.723,-2.7277,-2.7207,-2.7201,-2.7186,-2.7088,-2.7077,-2.714,-2.7111,-2.7051,-2.7172,-2.7076,-2.7088,-2.7189,-2.7217,-2.7239,-2.7245,-2.6918,0,0,0,0,0,-2.7445,-2.7462,-2.7384,-2.7455,-2.7444,-2.7363,-2.7366,-2.7306,-2.7276,-2.7264,-2.7218,-2.7193,-2.7199,-2.7207,-2.7209,-2.7297,-2.7282,-2.7344,-2.7367,-2.7386,-2.7398,-2.7441,-2.7468,-2.7185,-2.7185,-2.7185,0,0,-2.7539,-2.7492,-2.7509,-2.7487,-2.7459,-2.748,-2.7355,-2.7382,-2.7397,-2.7269,-2.7312,-2.7278,-2.7243,-2.7312,-2.734,-2.7289,-2.7473,-2.7401,-2.7417,-2.7418,-2.7456,-2.7483,-2.7507,-2.7193,-2.7192,-2.719,0,0,-2.772,-2.7687,-2.7741,-2.7715,-2.7674,-2.762,-2.7633,-2.7572,-2.7544,-2.7585,-2.7489,-2.7506,-2.7521,-2.7499,-2.749,-2.7663,-2.759,-2.7666,-2.7785,-2.7829,-2.7851,-2.787,-2.7931,-2.7954,-2.7679,-2.7679,-2.7679,0,-2.7842,-2.7868,-2.7778,-2.7811,-2.7804,-2.7687,-2.7742,-2.7722,-2.7685,-2.7683,-2.7627,-2.7642,-2.761,-2.7672,-2.7714,-2.7711,-2.7723,-2.7672,-2.7855,-2.7873,-2.789,-2.7947,-2.797,-2.7689,-2.7687,-2.7686,-2.7686,0,-2.802,-2.8039,-2.8088,-2.8053,-2.8051,-2.8096,-2.8014,-2.8023,-2.7964,-2.7916,-2.7959,-2.7917,-2.7908,-2.7918,-2.7862,-2.7972,-2.7942,-2.7872,-2.7773,-2.7928,-2.7979,-2.8001,-2.7702,-2.7699,-2.7696,-2.7694,0,0,-2.8305,-2.8219,-2.8238,-2.822,-2.8166,-2.818,-2.8219,-2.8208,-2.8218,-2.8197,-2.8227,-2.8241,-2.8175,-2.8166,-2.8105,-2.8143,-2.8281,-2.8068,-2.8065,-2.8109,-2.84,-2.8453,-2.848,-2.8233,-2.8236,-2.8239,-2.8403,0,-2.8474,-2.8533,-2.8453,-2.8531,-2.8547,-2.8436,-2.847,-2.8441,-2.8397,-2.8405,-2.8357,-2.8368,-2.8281,-2.8274,-2.8307,-2.8258,-2.8339,-2.8245,-2.826,-2.8262,-2.8272,-2.8507,-2.8563,-2.8719,-2.8422,-2.8426,-2.8428,0,-2.8678,-2.8664,-2.8743,-2.8682,-2.8686,-2.8718,-2.8701,-2.8711,-2.8676,-2.8641,-2.863,-2.8556,-2.8591,-2.8495,-2.8541,-2.8479,-2.8481,-2.8458,-2.8462,-2.846,-2.8355,-2.8511,-2.8767,-2.8791,-2.8459,-2.8457,-2.8455,0,-2.8878,-2.8879,-2.8925,-2.8914,-2.8845,-2.8869,-2.8842,-2.8801,-2.88,-2.8786,-2.8784,-2.8776,-2.8771,-2.8767,-2.8694,-2.863,-2.8749,-2.8647,-2.8721,-2.8724,-2.8751,-2.8751,-2.9011,-2.8754,-2.8754,-2.8753,-2.8753,0,-2.9074,-2.9127,-2.9014,-2.9043,-2.9098,-2.9006,-2.9064,-2.9026,-2.8991,-2.9011,-2.8915,-2.8936,-2.8838,-2.8849,-2.8793,-2.8839,-2.8838,-2.8812,-2.8796,-2.882,-2.8823,-2.882,-2.8807,-2.8759,-2.8758,-2.8757,-2.8756,0,-2.9307,-2.9233,-2.9276,-2.9207,-2.919,-2.9234,-2.9175,-2.9199,-2.9148,-2.9175,-2.9176,-2.9097,-2.9105,-2.9031,-2.9026,-2.8987,-2.9061,-2.9026,-2.9072,-2.9061,-2.914,-2.9133,-2.9406,-2.9437,-2.9161,-2.9164,-2.9166,0,-2.9437,-2.9474,-2.9407,-2.9413,-2.939,-2.94,-2.9397,-2.9309,-2.931,-2.9272,-2.9301,-2.9301,-2.9295,-2.9313,-2.9256,-2.9251,-2.9216,-2.9312,-2.9215,-2.9237,-2.9217,-2.9215,-2.9218,-2.9333,-2.9336,-2.9339,-2.9341,0,-2.9675,-2.9636,-2.9635,-2.9621,-2.962,-2.9605,-2.9585,-2.9595,-2.9498,-2.9505,-2.951,-2.9506,-2.9499,-2.95,-2.9484,-2.9457,-2.9384,-2.9372,-2.9389,-2.9414,-2.9439,-2.9426,-2.9127,-2.9366,-2.9364,-2.9362,-2.9361,-2.936,-2.9859,-2.9887,-2.9844,-2.9845,-2.982,-2.9802,-2.9821,-2.9772,-2.9774,-2.976,-2.9708,-2.9723,-2.9686,-2.9656,-2.9636,-2.9647,-2.9601,-2.9625,-2.9632,-2.9639,-2.9653,-2.9437,-2.9644,-2.9643,-2.9642,-2.9642,-2.9641,0,-3.0092,-3.0058,-3.0061,-3.0033,-3.0035,-2.9963,-2.9936,-2.9943,-2.9956,-2.9928,-2.9924,-2.993,-2.993,-2.9873,-2.9866,-2.9886,-2.9852,-2.9887,-2.9885,-2.988,-2.9695,-2.9681,-2.9914,-2.9914,-2.9914,-2.9914,-2.9914,-2.9914,-3.0213,-3.0256,-3.0212,-3.0241,-3.0206,-3.0219,-3.0209,-3.0193,-3.0169,-3.018,-3.0179,-3.014,-3.01,-3.0089,-3.0086,-3.0069,-3.0071,-3.0118,-3.009,-2.9919,-2.9893,-2.9867,-2.9853,-3.0119,-3.0119,-3.0273,-3.0274,-3.0275]},{"header":{"parameterUnit":"m.s-1","parameterCategory":1,"la1":30.2991,"la2":30.254,"lo1":-89.0895,"lo2":-89.0444,"dy":0.0017,"dx":0.0017,"nx":28,"ny":28,"refTime":"2024-06-20T03:00:00:Z","depth":0,"parameterNumber":3,"parameterNumberName":"V-component_of_WINDS"},"data":[0,0,0,0,0,0,0,0,0,0,0,0,0,0,0,0,0,0,0,0,0,0,0,0,0,0,0,0,0,0,0,0,0,0,0,0,0,0,0,0,0,0,0,0,0,0,0,0,0,0,0,0,0,0,0,0,0,0,0.7741,0.7741,0,0.7729,0.7728,0.7728,0.7729,0.7729,0.7729,0.7729,0.7714,0.7714,0.7713,0,0,0,0,0,0,0,0,0,0,0,0,0,0.7764,0.7763,0.7741,0.7741,0.7741,0.7729,0.7728,0.7728,0.7729,0.7729,0.7729,0.7729,0.7715,0.7714,0.7713,0,0,0,0,0,0,0,0,0,0,0,0,0,0.7753,0.7763,0.7741,0.7739,0.7739,0.7729,0.7728,0.7728,0.7729,0.7729,0.7729,0.7729,0.7715,0.7714,0.7713,0.7703,0,0,0.7711,0.771,0,0,0,0,0,0,0,0,0.7753,0.7752,0.774,0.774,0.7739,0.7731,0.7731,0.772,0.7729,0.7733,0.7729,0.773,0.7719,0.7718,0.7715,0.7702,0.7701,0.7711,0.771,0.771,0.7709,0,0,0,0,0,0,0,0.7754,0.7752,0.7736,0.774,0.7739,0.7739,0.7738,0.7729,0.7725,0.7732,0.7732,0.7731,0.7719,0.7716,0.7715,0.7701,0.7711,0.771,0.7709,0.7709,0.7679,0.7679,0,0,0,0,0,0,0.7755,0.7753,0.7736,0.7736,0.7747,0.7738,0.7737,0.7733,0.7725,0.7724,0.7731,0.7731,0.7717,0.7716,0.7714,0.7702,0.771,0.7709,0.7708,0.768,0.7679,0.7679,0,0,0,0,0,0,0.7756,0.7754,0.7737,0.7744,0.7742,0.7738,0.7733,0.7733,0.7729,0.7724,0.7723,0.7728,0.7718,0.7716,0.7706,0.7701,0.7708,0.7708,0.768,0.768,0.7679,0.7677,0,0,0,0,0,0,0.7757,0.7754,0.775,0.7744,0.7742,0.7729,0.7733,0.7732,0.7728,0.7728,0.7721,0.772,0.7718,0.7707,0.7705,0.77,0.7707,0.768,0.768,0.7679,0.7677,0.7676,0.7675,0,0,0,0,0,0.7757,0.7749,0.775,0.7748,0.7737,0.7729,0.7727,0.7725,0.7728,0.7724,0.772,0.772,0.7702,0.7706,0.7704,0.7699,0.7681,0.768,0.7679,0.7677,0.7676,0.7675,0,0,0,0,0,0,0.7753,0.7748,0.7749,0.7739,0.7734,0.7729,0.7723,0.7724,0.7718,0.7718,0.7715,0.7714,0.7704,0.77,0.7705,0.7689,0.7692,0.7691,0.7691,0.769,0.7689,0.769,0.7706,0,0,0,0,0,0.7752,0.7746,0.7742,0.7733,0.7731,0.7728,0.7724,0.7723,0.7718,0.7716,0.7711,0.7706,0.7699,0.7694,0.7688,0.7677,0.7675,0.7672,0.7671,0.7671,0.767,0.7664,0.7663,0.7677,0.7677,0.7677,0,0,0.7747,0.7744,0.774,0.7732,0.7729,0.7722,0.7726,0.7719,0.7714,0.7714,0.7705,0.7702,0.7696,0.7685,0.7681,0.7682,0.7666,0.767,0.767,0.7669,0.7663,0.7662,0.7661,0.7677,0.7677,0.7677,0,0,0.7736,0.7733,0.7726,0.7723,0.7718,0.7716,0.7714,0.7709,0.7707,0.7698,0.7699,0.7693,0.7681,0.7677,0.7673,0.7662,0.7662,0.766,0.7655,0.765,0.7649,0.7648,0.7644,0.7643,0.7659,0.7659,0.7659,0,0.7731,0.7723,0.7722,0.7716,0.7712,0.7713,0.7706,0.7703,0.7695,0.7693,0.7695,0.7681,0.7677,0.7666,0.7664,0.766,0.7658,0.766,0.7649,0.7648,0.7647,0.7644,0.7642,0.7659,0.7659,0.7659,0.7659,0,0.7717,0.7711,0.7706,0.77,0.7696,0.7689,0.7687,0.7683,0.7683,0.7681,0.7672,0.7668,0.7661,0.7658,0.7657,0.7647,0.7649,0.765,0.7653,0.7646,0.7642,0.7641,0.7659,0.7659,0.7659,0.7659,0,0,0.7702,0.7697,0.7695,0.7693,0.7688,0.7683,0.7677,0.7671,0.7667,0.7663,0.7657,0.7648,0.765,0.7645,0.7644,0.764,0.7632,0.7642,0.7642,0.764,0.7621,0.762,0.7618,0.7632,0.7632,0.7632,0.7622,0,0.769,0.7679,0.7679,0.7669,0.7663,0.7665,0.766,0.7656,0.7654,0.7649,0.7647,0.7641,0.7643,0.7641,0.7637,0.7634,0.7628,0.7635,0.7627,0.7626,0.7628,0.7616,0.7615,0.7605,0.762,0.762,0.762,0,0.7675,0.7671,0.766,0.7657,0.7655,0.765,0.7645,0.764,0.7636,0.7636,0.7632,0.7632,0.7625,0.7629,0.762,0.7624,0.7621,0.762,0.7619,0.7618,0.7622,0.7614,0.7602,0.76,0.7618,0.7618,0.7618,0,0.7665,0.7657,0.765,0.7648,0.7644,0.7641,0.7639,0.7635,0.7632,0.7628,0.7626,0.762,0.7617,0.7613,0.7612,0.7615,0.7602,0.7606,0.7601,0.7601,0.7598,0.7598,0.7584,0.7596,0.7596,0.7596,0.7596,0,0.7651,0.7645,0.7645,0.7641,0.7634,0.7634,0.7627,0.7625,0.7622,0.7617,0.7619,0.7614,0.7613,0.7608,0.7607,0.7599,0.7598,0.7597,0.7596,0.7596,0.7597,0.7594,0.7594,0.7596,0.7596,0.7596,0.7596,0,0.7638,0.7639,0.7631,0.7629,0.7628,0.7623,0.7621,0.7617,0.7616,0.761,0.7608,0.7607,0.7601,0.76,0.7593,0.7592,0.7583,0.7584,0.7585,0.7584,0.7579,0.758,0.7563,0.7561,0.7575,0.7575,0.7575,0,0.763,0.7625,0.7623,0.762,0.7618,0.7614,0.7611,0.7612,0.7609,0.7605,0.7601,0.7596,0.7591,0.7583,0.758,0.7575,0.7575,0.757,0.7574,0.7575,0.7575,0.7575,0.7575,0.7569,0.7569,0.7569,0.7568,0,0.7614,0.7615,0.7611,0.7608,0.7604,0.7601,0.7599,0.7596,0.7597,0.7593,0.7588,0.7585,0.7579,0.7573,0.7569,0.7566,0.7567,0.7567,0.7566,0.7565,0.7566,0.7566,0.7582,0.7567,0.7567,0.7568,0.7568,0.7568,0.7602,0.7599,0.7597,0.7593,0.7591,0.7589,0.7585,0.7585,0.7581,0.7576,0.7577,0.7571,0.7569,0.7562,0.756,0.7556,0.7557,0.7555,0.7554,0.7554,0.7553,0.7568,0.7555,0.7555,0.7555,0.7555,0.7555,0,0.7587,0.7586,0.7583,0.758,0.7577,0.7579,0.7577,0.7574,0.7569,0.7567,0.7563,0.7558,0.7553,0.7552,0.7547,0.7544,0.7544,0.7543,0.7542,0.7542,0.7552,0.7554,0.7542,0.7542,0.7542,0.7542,0.7542,0.7542,0.7578,0.7572,0.7573,0.7566,0.7565,0.7561,0.7559,0.7557,0.7555,0.755,0.7546,0.7546,0.7544,0.7539,0.7535,0.7535,0.7533,0.7531,0.7531,0.754,0.7541,0.7542,0.7544,0.7531,0.7531,0.7521,0.7521,0.7521]}]]